Theta_e
316 315 315 315 316 316 317 317 319 323 327 329 330 332 333 333 333 333 333 334 333 332 333 334 335 335 334 324 320 324 321 320 321 321 322 322 323 322 320 318 317 319 320 321 323 323 324 324 327 326 325 325 324 324 323 322 321 321 324 324 323 324 325 325 326 323 321 319 317 317 320 323 322 320 319 319 320 321 321 322 325 326 326 329 329 334 339 337
315 314 315 315 315 316 316 318 318 322 327 329 329 332 332 332 333 333 333 333 333 333 333 334 334 335 332 320 320 325 322 324 325 323 323 321 321 321 318 317 318 319 319 321 322 323 324 325 327 327 326 326 326 323 322 322 321 323 325 325 325 326 324 322 323 321 320 318 317 317 317 321 322 321 320 320 321 321 321 322 324 324 325 328 329 333 338 337
315 314 314 315 315 315 316 317 317 319 325 328 329 331 332 332 332 332 332 332 333 333 333 334 334 335 330 319 319 324 324 325 325 324 324 321 320 318 316 317 316 316 320 323 322 323 325 326 328 327 327 329 328 324 322 322 321 324 325 327 329 327 323 320 320 319 318 317 317 317 315 317 320 320 320 320 321 321 321 322 322 324 324 326 328 333 337 337
316 314 313 313 314 315 315 316 316 318 324 327 328 331 332 331 331 332 332 332 332 333 333 334 333 333 330 319 317 322 323 324 324 324 325 323 320 318 317 319 319 318 320 323 323 325 326 328 328 327 329 331 330 325 324 322 321 323 324 327 328 326 325 320 318 317 315 316 316 316 315 316 317 318 319 320 322 321 322 322 322 323 323 326 328 332 337 338
316 315 313 312 313 314 316 315 315 318 321 322 324 328 331 332 332 331 331 331 332 332 332 332 331 332 328 319 317 321 322 324 325 323 325 323 320 320 320 321 322 320 320 323 325 326 327 328 328 328 330 333 331 328 327 323 320 322 322 322 322 324 325 319 316 315 314 315 315 316 316 316 315 316 318 319 321 321 320 320 321 321 320 327 329 331 336 338
315 316 315 313 313 314 315 315 315 316 316 316 319 324 329 332 332 331 330 330 332 332 332 331 329 330 326 317 318 320 321 326 324 321 324 322 322 322 321 321 321 321 321 323 325 326 327 327 328 330 331 334 333 330 331 323 319 323 322 319 319 321 321 316 314 313 313 315 315 316 315 315 315 316 317 317 319 319 318 318 319 319 321 329 331 331 333 336
316 316 315 313 312 313 313 314 314 315 315 314 315 320 326 332 332 331 330 330 331 331 331 330 328 327 322 316 320 321 321 325 323 322 323 322 323 323 320 320 320 321 323 324 325 325 327 327 329 331 332 334 333 332 331 321 318 324 325 320 318 319 317 315 314 312 312 314 315 315 314 314 316 317 316 316 318 318 318 319 318 319 325 330 332 332 333 335
316 316 314 312 312 312 311 312 313 314 315 313 314 319 324 329 331 332 331 331 331 331 331 329 327 324 320 319 322 321 321 323 323 323 323 322 323 322 320 320 320 320 323 325 324 325 327 328 330 331 333 334 333 333 328 321 320 324 327 321 316 317 316 314 314 313 313 313 313 313 313 315 316 315 314 315 317 317 318 319 317 319 326 329 329 331 332 335
315 315 313 312 312 311 311 312 312 313 313 313 316 320 323 326 329 332 331 331 331 330 330 328 325 322 319 321 322 321 322 323 322 322 321 322 322 321 320 320 321 322 324 325 325 327 327 328 330 330 332 333 333 332 326 324 324 325 327 320 316 316 316 315 315 315 315 314 313 313 314 316 314 313 314 316 316 317 318 319 319 320 324 326 327 329 331 333
314 315 314 312 311 311 312 312 311 312 312 313 314 317 322 325 328 331 331 331 330 330 329 325 323 320 320 322 321 322 323 321 322 322 322 323 321 320 320 320 322 323 324 324 325 327 326 328 329 327 328 330 332 332 328 327 326 325 324 318 317 318 316 316 316 315 316 316 314 314 316 316 313 313 316 317 316 317 318 318 320 320 322 324 326 329 331 333
315 314 313 312 311 312 313 312 311 312 312 312 312 312 318 324 327 330 331 330 330 329 328 325 322 320 321 321 320 323 323 321 322 323 324 324 321 320 320 321 323 324 324 323 324 325 326 328 326 326 329 329 330 331 328 326 325 324 321 318 318 318 316 317 316 317 317 317 315 314 316 316 313 313 316 317 314 315 317 319 321 320 320 322 325 328 331 332
314 313 312 312 312 313 313 312 311 312 312 312 312 311 315 322 327 328 329 329 329 329 327 325 322 320 321 319 320 323 323 323 323 324 326 325 321 319 319 321 323 323 323 323 323 323 325 326 324 327 328 328 330 329 328 325 324 324 322 323 322 319 319 318 317 318 318 317 315 315 318 319 316 314 315 317 315 315 316 319 321 320 320 321 324 327 330 332
314 312 311 313 313 313 312 312 311 312 312 313 313 313 316 321 325 328 329 329 329 328 326 324 321 320 321 320 321 323 323 325 324 324 328 326 321 319 318 321 323 322 323 324 324 323 323 323 324 326 324 326 328 325 325 324 322 325 325 327 328 325 325 323 320 319 319 318 315 317 319 322 322 317 316 317 315 316 316 317 320 320 321 322 325 327 328 331
314 312 312 314 314 313 313 312 312 312 313 314 313 314 318 320 323 327 329 328 328 327 326 322 320 320 321 321 323 323 322 326 324 324 328 327 322 320 318 319 321 321 323 323 323 322 321 322 323 323 321 323 323 319 321 322 322 326 326 326 328 328 328 328 325 322 320 318 316 319 319 323 324 318 316 317 316 315 316 316 318 319 321 323 326 327 327 329
313 312 312 314 314 314 313 312 312 312 313 313 313 313 317 319 321 326 328 328 327 327 325 321 321 322 322 322 322 322 323 325 324 325 328 326 322 322 319 319 321 321 321 321 321 320 321 322 322 323 321 319 319 321 322 323 325 327 327 328 330 329 329 327 326 324 323 319 317 320 321 323 324 322 318 315 315 315 316 316 316 318 321 322 324 325 326 327
312 311 311 311 312 312 313 312 312 313 313 313 314 315 317 318 319 324 327 327 327 326 324 322 323 323 323 324 322 322 324 324 323 325 326 324 322 322 321 321 321 321 320 319 319 319 320 321 319 321 321 319 321 324 326 326 327 327 327 329 331 330 329 327 324 324 325 322 318 321 324 326 324 322 319 315 316 316 316 317 316 317 318 321 322 323 324 325
311 311 310 309 310 310 311 311 311 312 313 313 314 315 316 315 317 322 326 327 326 325 323 323 323 323 323 323 322 323 324 324 324 324 324 323 323 322 321 321 321 320 319 318 318 318 319 318 317 320 321 322 323 325 328 329 328 327 326 328 330 330 329 327 323 322 323 322 321 321 324 328 325 319 315 313 315 317 316 317 316 316 317 319 320 322 323 324
311 312 309 308 309 309 310 312 311 311 313 313 313 314 313 313 315 320 326 327 326 324 323 323 323 325 325 321 322 324 325 325 324 324 323 323 322 322 321 320 320 320 318 318 318 318 317 316 317 321 323 323 324 326 329 331 330 327 326 328 328 327 326 327 324 322 321 322 323 323 322 325 326 322 318 314 314 315 316 317 316 316 316 316 318 319 321 322
310 310 308 307 308 308 310 313 313 313 312 312 312 312 312 313 315 320 325 325 325 326 326 324 323 327 327 322 322 323 325 326 324 324 324 322 322 321 320 320 319 319 319 320 319 317 317 318 320 324 325 325 326 326 329 331 330 329 328 328 327 326 325 327 324 319 321 322 323 325 323 323 324 324 324 320 316 315 316 318 317 316 316 315 316 317 319 320
308 307 307 307 307 308 311 313 314 313 312 311 311 312 314 316 320 325 326 324 325 327 327 324 323 325 325 322 322 325 325 325 324 323 323 321 320 321 320 319 319 320 322 323 320 317 318 322 323 325 326 326 325 326 328 329 329 330 330 328 328 327 326 328 324 316 317 321 321 323 324 324 324 323 323 324 321 318 318 319 319 318 317 317 316 316 317 318
306 306 306 307 308 310 311 311 312 311 311 311 310 314 316 317 322 325 324 326 325 325 325 323 322 323 323 323 324 325 325 325 324 322 322 321 320 321 320 320 322 324 324 323 320 318 320 325 325 324 325 325 324 325 328 327 327 329 329 327 328 328 327 327 323 315 314 318 321 323 322 322 323 322 321 322 321 320 319 318 320 320 319 319 318 317 318 318
306 306 307 308 309 310 309 309 310 310 311 311 311 315 316 315 316 314 316 326 325 323 324 322 322 323 323 324 325 325 325 326 325 322 321 321 319 321 321 321 324 325 325 322 320 321 323 326 326 323 324 325 325 325 327 326 326 328 328 328 328 328 328 324 319 315 313 317 322 322 321 320 319 320 320 320 319 319 320 318 318 320 322 322 319 317 318 318
306 307 308 309 308 308 308 308 309 310 312 313 314 315 315 312 313 311 313 323 325 322 324 322 321 323 324 325 325 324 324 325 324 321 320 320 320 321 322 323 325 326 326 322 320 323 325 326 325 323 324 325 326 326 325 325 326 328 328 328 327 328 328 325 320 316 314 316 319 319 319 319 319 320 320 320 320 318 319 318 317 318 321 322 321 319 317 317
307 308 309 309 307 306 307 307 308 311 312 314 314 314 313 311 311 312 314 323 325 323 323 323 322 323 324 325 324 325 325 323 322 319 318 320 321 320 321 322 324 324 325 322 322 325 326 325 323 324 324 325 326 326 325 326 327 328 328 328 328 327 327 323 320 317 315 315 315 317 321 322 323 324 323 323 322 319 318 318 317 316 318 319 319 319 318 318
308 309 309 308 306 305 306 306 307 309 312 312 312 311 312 312 310 311 314 322 326 324 323 323 323 324 323 324 324 325 325 323 322 320 318 320 322 321 320 321 321 321 321 321 323 326 326 323 323 324 323 324 325 325 325 327 328 328 327 327 326 326 326 322 318 318 320 320 318 320 326 326 324 325 326 325 325 323 320 318 317 316 316 317 317 317 318 318
308 309 309 307 305 304 305 306 306 308 311 311 310 310 311 311 310 311 315 320 324 324 325 324 325 325 323 324 324 323 327 326 323 319 317 319 321 321 322 321 320 320 319 319 323 326 323 321 323 323 323 325 325 325 325 326 327 327 326 324 325 325 325 322 320 322 325 325 318 317 324 326 323 324 326 325 325 324 321 319 318 317 316 316 316 316 316 316
309 309 308 306 304 303 305 306 305 307 310 310 310 310 311 311 311 313 316 321 323 323 325 324 324 325 324 324 323 324 329 326 321 318 317 320 321 320 322 321 320 321 318 321 326 324 318 320 323 323 324 325 325 325 325 324 327 327 323 322 324 324 323 322 322 323 324 322 318 315 319 323 322 322 324 323 322 321 320 320 319 317 317 316 316 316 316 316
309 309 308 305 303 303 304 304 305 307 309 309 309 310 310 311 312 313 316 322 325 322 324 323 320 322 324 324 322 324 325 322 322 321 317 319 321 320 323 321 320 321 319 323 327 321 316 320 323 323 325 325 325 325 323 323 326 322 319 321 322 322 322 321 322 323 321 321 322 319 317 322 323 320 322 322 320 320 320 320 319 318 317 316 316 316 316 316
309 308 307 304 304 304 303 303 305 307 308 308 309 310 310 310 312 314 316 321 322 321 322 321 320 322 324 325 324 323 322 322 324 321 317 319 319 319 322 321 320 321 319 323 324 319 316 318 321 322 324 325 324 323 321 322 324 319 317 319 319 319 320 320 321 322 320 320 324 322 318 322 324 321 321 320 318 320 321 320 321 319 318 318 317 317 317 316
309 308 306 305 306 305 303 304 304 305 306 308 308 309 310 311 313 316 318 320 320 319 320 321 321 324 326 327 326 324 323 322 321 318 318 320 318 317 319 320 321 321 320 320 318 316 314 314 318 320 322 323 321 320 321 321 319 317 317 319 318 318 318 319 319 318 320 323 324 322 319 321 324 322 321 321 318 319 321 320 321 320 319 319 318 318 317 316
308 308 305 306 307 304 304 306 305 303 306 308 308 309 311 312 313 318 319 319 319 319 320 322 323 326 327 327 326 325 323 321 319 319 320 321 319 319 321 322 322 323 322 319 316 315 314 315 318 316 315 319 319 317 318 318 316 317 319 319 320 320 318 320 319 318 324 326 321 319 319 320 323 321 320 323 320 318 319 319 319 319 319 319 319 319 318 316
308 308 307 307 306 304 305 306 304 303 305 307 308 310 312 313 314 318 319 318 319 318 319 322 325 327 327 326 326 325 324 322 320 320 321 322 321 321 323 322 322 324 325 322 319 318 317 317 317 314 313 316 320 319 318 317 317 319 319 319 322 324 323 325 324 322 325 325 316 315 318 320 321 320 319 321 319 317 317 317 317 318 317 318 319 318 316 315
308 308 308 307 306 306 307 305 303 302 305 307 309 310 312 314 316 318 318 317 318 316 317 321 325 326 326 326 326 324 324 323 321 321 322 323 322 322 324 321 319 325 326 323 320 319 319 318 315 314 314 315 319 321 319 318 318 319 320 321 324 326 327 329 328 326 326 321 314 313 318 319 319 318 318 319 319 318 317 316 316 316 316 317 317 316 315 315
307 307 307 307 306 307 306 304 303 302 305 308 309 309 312 315 317 317 317 315 314 314 316 321 325 326 326 327 326 324 324 323 321 322 323 323 324 324 324 321 319 322 323 321 320 320 324 323 317 316 316 315 319 320 319 318 318 319 320 321 323 324 327 329 328 328 326 319 314 315 318 320 318 317 315 315 316 317 317 316 316 316 315 316 316 316 315 315
306 306 307 306 306 307 306 305 303 303 306 307 307 309 313 317 317 316 316 314 312 313 315 320 325 327 327 327 325 323 325 324 322 323 324 324 325 325 324 321 319 321 322 322 321 321 326 325 318 315 315 315 318 319 318 318 319 320 319 321 323 322 322 321 319 320 320 318 317 316 317 318 317 317 315 314 314 314 315 316 315 315 314 314 315 315 315 315
305 305 306 306 306 306 306 306 306 304 306 306 307 310 313 314 315 315 315 314 313 314 315 319 324 327 328 327 325 324 323 323 323 324 325 325 324 324 323 320 319 320 321 323 322 323 327 323 315 313 313 313 317 318 316 319 321 320 319 321 321 317 317 317 316 314 315 320 321 317 317 317 316 318 317 316 315 313 314 314 314 314 314 313 315 316 316 316
305 305 304 305 305 306 306 306 306 305 304 305 307 310 311 310 310 313 315 314 314 314 316 320 323 324 326 325 326 325 323 323 324 324 326 326 325 324 323 321 319 320 321 322 322 324 326 319 313 313 314 313 314 317 317 318 319 318 319 320 317 315 315 316 318 317 317 322 321 317 318 317 315 317 318 316 315 314 315 314 314 314 314 315 316 317 318 318
304 304 303 304 304 305 305 304 305 304 304 305 308 309 309 309 309 312 314 315 315 315 316 320 319 319 322 324 324 325 324 325 326 325 325 326 327 325 322 322 320 319 320 321 322 323 323 318 312 313 314 312 312 316 318 317 315 315 317 318 317 319 318 316 318 319 320 323 320 316 316 315 315 316 316 317 316 316 316 315 315 315 315 316 316 317 318 318
304 303 302 303 304 304 304 304 304 304 304 306 307 308 308 308 308 310 311 314 315 315 316 318 316 316 317 321 324 324 324 325 326 326 326 326 327 324 322 322 320 319 320 320 322 323 322 320 316 312 312 312 312 315 318 317 313 312 315 316 317 319 319 317 318 317 318 321 320 318 316 315 316 316 316 317 316 316 316 316 317 316 315 316 315 317 318 319
302 302 302 303 304 304 304 305 305 304 305 306 307 307 307 307 307 307 309 312 314 315 316 315 315 316 315 318 323 324 324 325 325 326 326 324 325 324 322 322 321 319 320 321 322 323 321 322 318 312 311 313 313 315 317 318 314 312 315 317 317 316 315 316 317 315 316 318 318 319 318 315 316 317 317 317 317 316 316 316 317 317 316 316 315 316 318 319
301 302 302 303 303 304 304 305 305 305 305 307 307 307 307 307 307 306 306 308 310 313 314 313 313 315 315 317 321 324 326 326 325 325 325 323 324 325 324 321 321 320 320 322 323 323 322 321 318 312 312 314 314 313 315 316 315 314 315 316 317 316 315 317 320 317 314 316 316 317 318 316 315 317 316 316 316 316 315 316 317 317 316 315 314 315 317 317
300 302 302 302 303 304 304 304 305 306 306 307 307 307 307 306 306 306 305 307 308 310 312 312 312 312 313 315 318 320 324 326 325 324 324 323 323 324 323 321 321 320 320 322 322 320 319 318 316 313 313 314 313 311 312 315 316 315 315 316 317 317 316 318 321 318 315 314 313 314 317 317 316 316 315 315 316 316 315 316 316 316 315 313 314 315 316 316
301 302 302 302 303 303 303 303 304 305 305 306 306 306 306 306 306 306 306 307 308 309 310 311 312 312 312 312 314 316 319 323 325 324 323 323 322 322 322 321 321 320 320 321 320 319 318 317 316 315 314 313 311 311 311 312 314 315 315 315 316 317 317 317 317 316 316 315 314 315 319 318 315 315 315 315 315 314 312 313 313 314 313 313 314 314 314 315
301 301 301 302 303 302 301 302 303 304 305 305 305 306 306 306 306 307 307 307 307 308 309 309 311 313 313 311 312 314 316 320 324 324 323 324 322 321 321 321 321 321 320 321 320 319 321 319 317 316 316 316 315 314 313 313 313 315 315 315 316 317 317 316 313 313 316 318 317 318 320 318 314 313 314 313 313 311 310 311 311 313 314 314 314 314 314 314
301 300 301 302 303 302 301 301 302 303 304 304 305 305 306 306 306 306 307 307 306 308 309 309 311 312 312 312 312 312 313 316 320 323 324 324 321 321 321 322 322 320 321 322 321 320 321 320 318 318 319 320 320 319 318 315 313 314 315 316 316 317 316 315 313 314 316 319 319 318 318 316 312 312 313 312 311 311 310 310 310 311 313 314 314 314 314 315
300 300 301 302 302 302 301 301 302 302 303 304 304 305 306 306 307 306 307 307 307 307 308 309 311 311 311 312 313 313 313 313 314 317 321 322 319 319 322 323 321 321 324 325 322 319 320 320 319 319 320 320 320 320 319 316 314 314 316 316 317 317 317 315 315 316 316 318 318 318 318 316 313 312 313 313 312 312 312 312 311 311 312 313 315 316 315 315
300 300 301 301 301 301 301 301 301 302 302 303 303 304 305 306 306 306 307 307 307 308 308 308 310 310 311 312 314 315 314 313 312 313 317 319 317 317 321 323 321 322 325 325 322 320 320 320 319 320 321 320 319 319 318 317 316 315 316 317 317 318 318 317 317 317 317 318 318 318 318 318 315 312 312 313 313 313 313 313 313 312 313 315 316 315 314 314
300 300 301 301 301 301 301 301 301 302 302 303 303 304 304 304 305 306 307 307 307 308 308 308 309 309 310 311 313 315 315 314 314 314 316 317 317 319 322 323 322 322 323 322 321 320 320 321 320 320 322 321 319 319 318 317 317 316 315 316 316 317 318 317 317 317 317 317 318 319 320 319 316 313 313 313 313 313 313 313 313 312 313 313 313 314 314 313
300 300 300 301 301 301 301 301 301 302 302 302 302 303 304 304 304 305 306 307 308 308 308 309 309 309 309 310 313 314 315 315 315 314 314 315 318 320 323 323 320 319 319 319 318 319 320 322 321 320 322 322 320 319 318 318 318 317 316 315 315 316 316 316 316 316 316 317 317 318 320 319 317 315 314 313 315 315 314 314 313 312 313 312 312 314 314 313
300 300 300 300 301 301 300 301 301 301 302 302 302 302 303 303 303 304 305 307 308 308 308 308 309 310 309 310 311 312 313 315 316 315 313 313 317 319 321 322 318 316 318 318 317 317 318 321 322 320 323 323 318 318 319 319 319 319 317 316 315 315 316 316 316 316 316 317 316 317 319 319 318 317 316 314 317 318 315 313 311 311 313 314 314 315 315 314
300 300 300 301 301 301 301 301 301 301 301 301 301 302 302 302 303 303 305 306 307 308 308 308 308 309 310 310 310 310 311 312 314 316 315 314 316 318 319 319 317 316 318 318 317 317 317 320 322 321 323 323 317 315 318 319 319 320 319 318 316 315 316 317 316 317 317 317 318 319 319 318 317 318 317 315 316 316 314 312 312 312 313 314 314 315 315 314
300 300 300 300 300 300 301 301 301 301 301 301 301 302 302 302 302 303 304 305 306 307 308 308 308 309 310 310 310 310 310 310 312 316 316 315 316 318 318 318 317 317 317 317 317 317 317 319 321 320 323 324 319 315 316 317 319 320 319 318 316 316 316 317 317 317 317 317 318 319 318 317 317 317 316 315 315 315 314 313 314 315 315 315 315 315 315 314
Wind_Speed
34 34 35 34 33 32 32 34 29 30 39 43 42 43 45 45 45 45 43 41 37 36 36 34 31 30 26 27 29 25 24 21 18 22 19 22 25 18 18 18 20 20 17 15 12 12 11 10 10 8 7 4 2 1 2 1 1 2 4 5 5 6 4 3 4 1 1 4 5 4 5 6 4 5 4 2 6 5 4 6 4 3 3 6 8 7 13 19
35 35 34 34 35 34 31 30 26 26 35 41 42 43 44 46 45 45 44 42 38 36 36 35 33 30 28 29 32 27 21 16 14 19 20 21 23 20 21 20 19 19 17 14 14 15 12 11 10 9 7 4 4 2 3 2 2 5 5 5 6 5 1 2 1 2 2 4 5 3 2 5 2 4 6 5 8 8 7 7 7 6 7 8 8 9 14 17
36 36 34 33 34 36 34 32 25 24 31 37 41 43 44 46 46 45 44 43 39 37 37 36 34 31 30 30 33 30 19 12 13 17 20 22 24 23 24 21 18 18 16 12 14 16 12 10 10 9 7 6 5 4 5 2 3 5 5 6 6 5 3 3 2 3 4 3 3 4 1 3 2 2 5 6 7 8 9 7 8 9 10 11 10 12 15 17
35 35 35 34 33 35 36 35 30 26 28 30 35 41 45 46 46 45 43 43 40 38 38 36 34 32 30 32 34 29 17 9 12 18 22 25 28 27 24 20 18 16 12 10 12 12 11 10 9 9 7 7 6 5 6 5 3 3 4 6 3 3 5 4 4 4 4 2 2 4 1 3 1 2 4 6 7 7 8 8 8 8 9 13 13 13 16 17
33 33 34 35 34 34 36 37 35 32 27 23 27 34 43 47 45 46 44 43 41 39 38 37 35 33 32 33 33 27 15 6 10 21 25 27 33 30 25 20 19 15 9 10 11 9 10 10 8 9 7 8 7 6 8 8 4 3 4 4 4 1 4 5 6 5 3 1 1 3 2 1 1 3 6 8 8 2 0 2 4 4 4 12 15 14 16 17
32 31 32 33 34 35 36 37 37 38 33 25 24 28 38 47 45 45 45 43 42 40 38 38 36 34 34 33 32 27 17 4 7 25 30 30 33 31 25 18 17 15 10 12 12 9 10 10 9 8 7 9 10 8 9 10 7 6 6 4 3 3 2 5 5 3 2 2 3 2 0 0 3 6 6 9 10 1 6 5 3 2 1 11 16 15 15 16
32 30 31 32 34 36 35 36 35 37 37 29 27 28 32 44 48 45 46 45 43 41 39 39 38 36 34 33 28 22 18 6 4 23 35 34 34 31 25 15 15 16 11 13 13 11 11 11 11 9 8 10 10 11 9 8 9 9 7 7 6 3 2 4 4 3 2 2 1 1 1 3 7 5 2 6 11 5 4 5 4 3 4 11 15 14 15 16
31 29 30 31 31 33 33 34 32 33 34 26 24 28 31 39 48 47 46 47 44 42 41 40 40 38 38 33 21 12 16 10 5 18 36 37 35 31 24 14 15 16 10 12 13 13 12 12 13 9 9 10 9 11 10 8 9 12 10 6 6 4 5 5 4 4 3 2 1 1 4 6 5 2 2 8 11 7 4 4 3 3 6 10 12 13 14 15
32 29 29 30 28 29 30 32 31 29 27 22 19 22 29 36 46 49 48 48 46 43 41 42 41 41 40 28 15 11 18 15 3 15 34 37 37 33 25 17 18 18 10 7 6 8 11 11 13 8 7 9 8 10 11 9 7 11 11 6 8 7 7 5 4 4 2 2 2 4 8 6 2 2 6 12 9 3 5 4 4 5 7 9 10 12 13 14
32 29 28 29 28 30 33 33 32 28 26 25 22 19 25 34 43 50 50 48 47 45 42 43 42 42 37 23 14 11 18 20 4 12 30 34 37 32 25 22 21 19 12 6 4 5 5 5 6 2 5 5 8 9 11 9 2 6 9 6 8 8 6 5 5 5 2 2 3 4 8 3 4 2 6 5 2 4 5 6 6 7 8 8 9 10 12 13
30 29 28 28 30 33 35 35 34 31 28 27 27 23 23 31 39 48 52 49 48 47 45 45 44 43 33 20 15 8 14 22 10 13 25 29 35 31 25 27 23 19 15 10 8 7 4 2 2 1 3 4 8 8 8 5 2 4 7 5 7 6 6 7 7 7 4 3 4 3 8 5 4 5 8 3 5 5 6 7 7 8 9 9 9 9 10 11
29 30 30 30 34 36 33 33 34 32 27 25 26 24 22 27 36 44 49 50 49 47 47 47 46 42 28 17 14 9 15 20 13 16 22 24 31 29 24 28 24 20 19 14 10 12 11 7 5 3 2 4 8 6 5 5 3 4 6 6 9 8 9 11 10 9 7 4 4 1 8 10 9 9 11 7 6 5 6 7 7 8 9 8 9 8 8 10
30 30 31 32 35 35 31 31 33 30 26 23 23 21 21 24 32 45 49 48 49 48 47 47 47 39 23 13 10 12 19 17 14 19 21 22 26 25 23 28 26 21 22 19 15 16 14 11 9 5 2 5 6 3 4 7 5 5 6 6 8 8 10 13 13 10 8 6 6 3 6 9 10 12 14 9 8 7 6 7 7 7 8 8 8 8 8 10
30 29 30 34 33 31 29 30 32 30 26 23 23 19 18 20 26 44 54 49 49 49 46 47 46 32 17 9 7 14 21 16 14 20 23 23 25 24 24 28 25 18 19 19 17 15 11 12 10 3 1 4 3 4 4 7 6 6 6 4 6 7 7 10 13 11 9 7 8 6 7 8 5 5 10 7 7 7 7 8 8 8 8 7 7 8 8 10
30 26 25 31 31 26 23 26 29 30 26 23 24 20 16 17 20 38 54 52 49 49 47 47 40 23 11 6 6 16 22 16 16 21 24 26 26 24 25 29 23 18 18 15 17 16 12 11 7 3 2 2 4 8 6 5 6 6 5 5 7 7 3 7 11 14 12 7 9 9 6 7 8 6 7 7 6 8 7 8 8 8 9 9 8 8 8 9
30 26 23 27 28 24 19 20 25 29 26 22 23 21 16 14 15 31 51 51 48 51 45 38 33 21 10 6 9 17 18 17 19 19 23 28 26 24 26 27 21 19 15 9 14 15 11 10 3 2 4 5 7 8 6 5 6 7 6 6 8 9 6 5 8 12 13 7 10 13 8 6 7 9 7 7 8 8 7 9 9 9 9 8 8 8 8 8
29 25 24 22 23 23 18 15 20 25 26 23 21 20 16 13 13 25 47 51 47 52 43 31 31 19 6 7 13 16 16 18 22 18 20 25 24 24 26 22 18 18 14 10 12 12 8 6 1 2 5 6 8 8 7 8 7 7 7 7 8 10 8 6 5 8 11 8 10 14 12 12 8 6 5 5 8 9 8 9 9 9 8 8 7 7 8 9
27 24 23 20 19 20 17 15 18 21 23 22 19 18 16 13 12 19 41 52 42 40 32 23 26 13 5 11 14 19 21 21 23 20 20 22 24 26 24 19 17 18 14 9 11 9 4 3 2 5 7 7 9 9 8 9 9 10 9 8 8 7 7 8 3 7 12 11 11 12 12 17 16 10 8 8 8 9 9 8 8 9 8 8 7 8 9 9
26 22 21 18 19 19 19 19 20 21 22 21 17 15 12 9 9 15 32 44 28 18 15 14 19 8 7 17 17 21 25 23 22 20 21 22 25 26 22 19 16 17 14 9 10 10 5 3 4 7 8 10 12 12 12 8 9 12 11 9 9 6 7 9 3 7 10 10 11 13 13 16 16 14 14 12 10 9 11 10 9 9 8 8 8 8 9 10
26 24 21 19 21 21 23 22 20 22 21 21 19 13 6 5 5 9 17 25 17 14 16 22 20 4 7 16 19 24 24 22 20 20 24 24 26 26 19 16 15 13 13 12 12 10 8 6 7 9 11 14 15 16 15 6 5 10 11 9 10 7 6 9 6 7 6 7 9 13 15 16 16 14 15 14 12 12 12 13 12 10 9 9 9 10 10 11
26 26 24 23 24 23 24 23 21 21 19 22 20 11 3 5 5 2 4 13 16 13 14 22 15 4 15 23 26 29 22 18 18 19 25 25 26 23 15 15 15 11 13 14 12 9 9 9 11 13 14 16 16 16 14 6 4 8 8 7 8 8 6 4 4 7 5 5 8 11 12 16 16 13 13 13 15 15 14 13 14 14 12 10 11 13 11 10
29 27 25 26 24 22 22 21 21 21 20 21 18 7 3 5 3 4 3 6 11 8 11 21 13 8 21 27 31 31 20 14 16 18 23 25 23 18 14 16 15 12 14 13 10 9 10 12 15 16 14 15 15 15 13 8 7 7 5 5 6 7 5 2 5 7 5 4 7 9 11 13 14 14 14 14 15 15 14 14 14 14 15 14 13 13 12 10
30 28 28 27 24 23 21 20 19 18 17 17 12 5 5 8 4 6 6 3 6 6 13 23 18 16 20 22 31 32 20 15 15 16 24 25 19 14 15 18 16 14 16 15 10 10 9 11 17 17 15 17 16 15 13 8 8 7 6 7 6 6 6 4 6 8 5 4 5 7 8 11 13 14 15 16 16 15 16 16 15 14 15 15 13 11 11 12
31 29 28 27 25 23 21 20 17 13 12 13 11 8 8 11 11 5 6 3 4 3 11 19 16 18 17 17 30 29 17 14 14 17 24 22 17 13 13 16 16 14 15 18 15 11 8 9 16 19 17 18 16 15 14 9 7 8 8 8 6 7 7 2 3 6 5 5 6 6 8 10 12 15 15 14 15 17 17 17 16 15 14 12 11 10 10 11
33 30 29 28 25 24 23 18 11 9 10 11 12 12 12 13 17 9 4 2 3 3 11 16 8 12 15 16 26 21 13 12 12 17 21 21 20 14 11 12 11 12 17 21 18 12 10 12 17 18 17 17 14 12 14 10 7 8 9 10 8 6 6 3 4 4 4 5 7 7 7 6 7 13 14 11 12 16 16 17 18 16 13 11 10 10 9 9
35 32 31 28 25 28 22 11 7 8 7 7 13 17 14 14 16 11 3 1 2 3 13 15 7 14 18 15 19 16 13 9 8 17 19 18 19 13 10 10 6 11 19 17 12 7 8 13 18 18 16 17 13 11 13 11 8 7 6 10 11 7 5 5 5 4 4 3 4 7 7 5 4 9 11 9 11 13 13 16 18 15 13 12 11 11 10 10
35 31 33 30 29 29 16 8 13 10 4 5 14 18 13 14 18 10 2 1 4 3 10 10 7 16 18 17 21 16 12 10 9 16 16 13 17 12 11 12 8 12 14 10 7 4 8 14 16 17 17 14 11 10 12 13 10 4 3 8 12 9 6 6 5 5 4 3 1 7 7 7 7 10 11 8 10 13 13 16 16 14 15 15 14 13 12 13
31 31 34 32 30 24 14 17 18 7 5 11 14 15 12 14 17 11 1 4 4 4 6 4 5 13 13 18 22 11 11 17 13 12 10 7 10 9 13 16 13 15 15 12 8 3 10 17 18 18 15 11 10 10 12 14 9 1 3 6 8 7 6 5 4 5 3 3 4 8 6 5 7 8 8 7 10 14 15 15 15 14 16 16 16 16 15 13
32 34 35 31 24 19 18 23 20 9 10 16 14 16 19 15 12 7 2 4 3 2 2 3 6 12 13 17 17 9 11 12 7 7 8 6 3 1 8 14 15 18 16 12 7 2 5 10 15 17 12 10 11 9 14 16 7 4 6 6 6 4 4 3 4 3 3 5 8 7 8 6 6 7 7 7 9 13 12 11 12 14 15 15 15 15 14 12
30 34 36 28 19 20 22 19 18 16 15 17 17 19 22 14 7 5 5 3 2 1 1 5 7 12 19 17 11 11 13 7 5 9 6 4 4 2 2 4 6 14 11 4 2 4 4 1 6 10 7 9 10 5 8 12 8 9 9 8 7 4 3 3 2 1 3 7 8 9 12 9 6 5 8 7 6 7 8 7 9 11 11 12 13 12 13 10
26 32 36 25 20 25 19 10 15 19 17 19 20 17 14 6 1 5 6 1 2 2 3 7 11 15 22 19 8 12 15 9 10 13 7 6 5 3 5 4 1 7 7 3 2 5 8 5 5 3 0 6 13 8 4 9 11 10 8 7 7 4 3 3 2 2 5 6 3 4 10 11 8 5 5 6 3 4 7 8 7 7 7 8 8 8 8 6
25 32 32 22 22 25 13 11 20 19 17 21 18 9 5 3 3 4 4 3 2 4 3 7 13 17 22 21 12 13 14 11 15 16 13 12 8 7 11 10 7 8 8 8 5 5 8 7 6 4 1 6 13 9 4 8 11 8 7 8 7 4 4 5 5 5 7 4 3 3 3 8 10 8 8 10 7 6 8 7 6 6 6 6 3 3 3 3
26 30 27 20 22 18 12 20 26 19 20 21 12 4 3 5 5 2 4 4 1 1 2 5 14 20 23 20 12 13 13 12 17 17 14 14 11 9 8 8 11 5 5 11 8 5 6 1 3 5 3 8 12 11 7 7 10 10 9 9 7 7 6 7 7 6 6 3 4 4 3 5 9 7 11 16 15 11 9 9 8 7 8 7 3 3 3 3
27 26 22 19 18 14 18 27 25 20 21 16 7 4 5 7 4 3 4 3 1 3 2 6 15 21 21 17 13 16 13 11 18 16 14 13 11 11 7 8 15 6 6 11 6 7 9 2 8 12 6 10 13 10 9 10 9 10 8 7 8 7 6 5 5 6 5 3 4 5 3 5 5 1 3 8 10 9 8 9 8 5 6 7 5 4 5 5
27 23 19 17 12 12 23 29 26 24 19 8 3 4 6 7 4 3 5 4 3 5 2 6 13 18 16 12 14 16 7 8 19 15 12 13 10 13 11 10 19 14 10 12 5 8 9 1 8 9 3 13 15 8 11 13 9 8 8 9 9 6 4 2 1 1 1 1 3 6 4 5 4 5 6 5 5 6 8 8 7 6 6 6 6 5 5 6
26 21 17 15 11 11 23 28 27 25 15 5 3 3 2 2 2 3 5 5 5 7 5 6 10 14 13 9 12 13 3 6 19 13 8 13 10 13 13 10 18 18 13 12 6 9 9 2 6 6 2 13 13 9 15 13 7 7 9 10 5 1 1 2 1 2 1 4 4 5 4 5 4 8 10 10 7 7 9 9 9 10 9 8 7 5 5 6
20 17 14 13 12 10 18 25 26 21 10 3 3 2 1 2 1 3 4 5 7 8 7 6 6 6 9 8 9 13 9 9 16 12 7 11 10 13 15 12 17 21 17 12 6 7 9 3 2 5 7 8 2 4 13 7 2 7 9 8 5 4 3 3 3 2 3 6 4 5 7 5 4 5 5 10 11 10 10 11 11 11 10 9 7 6 6 6
17 15 12 12 12 11 16 24 24 15 5 2 3 2 2 2 1 2 2 3 8 8 6 5 1 1 5 8 8 14 15 12 14 12 10 9 8 14 18 13 17 23 20 15 7 7 10 5 1 2 6 6 1 4 10 3 2 3 5 7 6 2 4 5 5 3 5 6 4 5 8 7 7 5 3 9 13 13 13 13 11 12 10 8 7 7 7 6
15 10 7 9 12 12 19 25 20 9 2 3 4 3 1 1 1 2 5 1 7 8 6 3 1 2 2 6 9 14 15 14 16 13 10 9 6 15 21 14 16 24 23 19 11 8 9 6 3 3 3 7 5 6 9 7 3 2 3 7 6 4 4 5 5 3 3 6 5 4 5 5 7 7 7 10 12 12 13 11 11 11 8 7 6 5 5 4
8 5 5 10 12 14 21 22 12 5 3 3 3 1 2 1 2 3 6 4 3 3 4 3 1 0 1 3 7 11 11 12 16 12 9 9 8 15 22 16 16 22 24 21 14 8 8 6 5 5 5 8 7 6 10 12 10 5 6 10 8 3 1 2 5 3 2 4 5 5 5 4 3 5 7 10 9 9 10 9 9 7 4 3 3 2 1 1
5 4 5 10 14 16 18 13 5 3 2 2 2 2 2 2 1 1 5 5 4 3 2 4 3 2 1 2 4 8 9 11 14 9 6 10 10 11 19 20 18 20 20 18 13 8 7 7 8 8 7 9 7 3 4 7 10 10 8 9 10 7 4 3 6 5 3 3 3 3 6 4 3 4 5 6 6 8 10 9 6 3 2 2 1 0 0 0
4 4 6 12 17 17 12 6 3 3 1 2 2 3 3 2 1 0 1 2 2 3 3 3 4 2 1 1 1 2 4 8 13 11 6 13 15 10 17 24 22 21 18 12 7 3 2 5 8 7 7 6 3 2 1 2 6 11 9 9 10 9 8 8 7 5 4 3 1 2 6 3 3 4 4 5 5 4 4 3 2 3 2 0 1 1 1 1
4 6 8 15 19 14 8 5 4 3 2 1 1 2 3 2 2 2 1 0 1 2 2 2 3 2 0 1 1 1 0 2 10 12 8 13 15 10 17 26 25 22 17 9 7 3 2 5 7 6 4 4 5 3 1 3 2 9 11 11 11 11 12 9 3 2 5 5 3 3 7 5 2 2 3 3 3 3 3 3 3 2 0 1 2 2 2 2
5 6 6 12 16 12 6 6 6 6 5 2 1 2 3 1 2 3 2 2 2 2 1 1 2 2 1 3 2 2 1 1 7 11 7 10 11 9 20 28 26 22 14 9 11 7 3 6 8 7 5 4 4 5 4 3 5 9 11 12 13 15 12 5 0 1 4 7 8 7 9 5 1 1 3 3 3 2 2 3 3 3 3 2 2 2 2 2
6 5 3 6 9 8 5 3 4 6 7 5 3 3 4 2 3 4 3 4 4 2 1 1 2 1 0 4 3 2 0 1 3 5 2 5 4 5 19 26 24 21 12 9 12 7 4 7 8 9 9 9 9 9 8 8 7 6 9 14 16 17 13 7 3 4 7 8 9 8 9 4 2 1 5 4 3 3 3 4 4 4 4 3 2 1 1 2
5 3 3 4 3 5 5 3 3 4 6 6 3 3 5 4 4 5 5 4 5 5 3 2 2 1 1 3 3 2 1 0 1 1 2 3 1 2 16 24 23 20 13 15 14 9 3 6 8 9 11 10 7 4 5 7 7 7 11 15 16 16 14 8 5 8 8 5 7 12 12 4 2 6 7 7 7 6 5 6 5 5 5 4 3 2 1 1
3 4 6 5 4 5 6 5 4 5 6 7 4 4 7 8 4 5 6 5 5 7 5 3 3 3 1 2 2 2 4 3 2 1 2 0 2 1 11 20 20 18 15 12 11 8 3 6 11 12 14 10 6 7 11 11 10 11 12 14 15 15 13 11 12 13 6 4 9 16 15 11 8 11 11 10 10 8 7 7 6 4 4 3 3 3 2 2
2 4 6 6 4 6 8 8 9 9 9 9 6 5 8 8 6 5 6 6 6 7 6 5 6 7 5 4 4 3 5 4 2 2 1 1 1 3 9 13 13 15 16 7 4 5 5 10 13 13 14 9 6 9 13 13 12 14 15 15 15 16 16 16 18 15 8 8 15 11 12 17 16 13 15 13 11 10 9 6 3 2 3 3 2 3 4 4
1 3 6 5 3 6 9 10 10 10 9 8 5 4 7 8 8 8 5 5 6 7 7 6 8 10 10 7 6 5 5 5 3 3 3 0 3 5 9 9 5 8 14 8 2 3 6 8 11 12 13 11 6 8 14 14 13 15 18 20 20 20 21 20 20 19 16 19 22 11 10 18 18 14 16 13 8 6 5 4 2 2 3 5 5 5 6 7
3 3 5 5 4 6 8 8 8 8 7 6 4 4 5 7 10 9 5 5 6 6 9 11 10 10 11 11 9 9 9 6 3 4 7 5 4 4 7 7 5 8 13 11 6 5 7 9 11 10 10 10 5 4 10 14 15 16 18 21 22 21 22 22 23 23 19 21 25 18 15 19 14 11 13 11 6 4 5 4 4 5 6 6 7 7 7 8
2 1 2 4 6 6 6 7 7 7 7 7 7 6 6 10 12 9 6 8 9 7 10 14 13 9 9 12 14 15 14 11 6 2 8 10 8 6 3 3 7 11 11 10 9 7 7 8 9 8 8 10 7 6 6 6 9 11 14 19 24 24 24 23 22 18 16 20 23 20 18 17 8 8 11 12 9 5 5 7 7 6 7 8 7 7 8 9
2 1 1 2 6 6 7 7 8 7 6 7 9 9 9 12 13 9 6 6 10 11 10 12 12 8 7 13 18 17 14 12 8 3 3 6 7 6 4 4 3 11 13 12 10 8 8 8 6 7 8 9 9 10 7 5 5 8 14 22 28 27 21 16 15 17 20 22 19 16 17 12 3 9 13 15 13 9 8 9 9 8 8 8 7 8 9 11
Wind_Direction
203 206 207 203 204 209 212 215 224 229 219 217 218 212 207 204 201 201 198 196 195 192 189 188 188 186 188 190 183 178 177 175 172 186 201 200 196 193 184 183 177 172 166 163 170 174 177 189 183 182 192 181 185 174 175 203 210 217 220 222 224 225 217 185 186 157 69 85 87 126 189 217 171 168 179 163 225 222 182 187 159 137 144 91 97 119 132 143
204 205 208 207 207 210 210 211 218 225 219 216 217 211 205 204 201 199 197 194 195 192 190 188 187 184 186 187 183 178 174 175 186 197 201 193 188 184 180 176 169 166 164 171 182 183 186 189 180 186 206 195 165 175 200 186 210 223 225 227 228 221 141 70 94 75 83 91 86 100 189 240 215 161 171 204 213 201 212 203 187 194 175 135 119 144 148 152
205 208 212 213 211 213 213 213 218 226 221 216 216 211 204 204 202 198 195 193 193 192 191 189 186 184 184 186 186 185 182 193 212 209 200 191 186 180 175 171 167 163 165 179 190 191 196 191 183 190 209 215 182 181 203 178 198 226 230 232 233 209 127 77 59 79 93 97 107 98 99 239 246 154 169 217 229 205 220 215 197 207 193 169 145 154 160 160
204 209 215 216 215 214 213 215 217 220 217 210 212 213 206 204 203 199 195 193 192 192 191 189 186 184 183 186 190 186 182 218 228 210 201 190 187 183 174 167 162 164 174 191 192 192 193 182 182 194 209 221 198 185 202 184 184 213 221 241 260 189 170 116 97 88 87 69 105 107 129 227 203 203 202 223 236 220 224 222 209 217 199 176 159 160 168 167
202 207 212 215 214 211 208 210 213 214 219 221 217 215 206 203 203 199 195 193 191 191 190 189 186 183 181 186 189 181 175 221 215 202 199 183 180 180 173 166 162 170 191 189 179 178 179 173 182 195 209 220 199 195 209 190 188 217 212 264 336 203 188 116 103 93 87 37 175 163 202 219 99 227 229 231 237 230 79 233 215 240 205 167 162 163 171 175
200 201 205 207 207 208 207 210 214 216 225 240 238 228 208 200 201 198 195 193 191 191 189 187 185 182 182 183 182 178 183 203 177 193 194 180 177 174 172 171 168 180 192 180 173 174 178 176 185 191 209 223 206 210 213 181 183 224 213 224 265 262 211 115 112 105 112 224 219 196 81 43 242 240 229 233 245 305 55 43 44 14 138 154 158 162 171 181
195 194 199 203 206 211 214 214 217 218 223 238 250 244 216 199 198 198 194 192 191 190 189 187 184 181 180 176 176 183 200 209 136 187 190 183 180 179 184 183 174 181 185 186 180 180 183 180 189 195 208 218 210 210 204 170 187 227 224 193 199 226 171 125 112 126 165 215 226 8 351 233 240 252 233 233 250 254 88 75 63 71 137 152 159 167 177 184
194 193 200 205 209 216 218 213 213 216 218 231 247 243 228 206 196 196 194 191 190 189 188 186 183 181 176 169 171 193 209 201 107 176 187 188 189 191 194 187 185 187 182 194 191 188 190 187 193 194 206 210 210 206 186 175 197 222 230 183 169 179 157 130 117 141 158 189 175 231 243 239 239 304 293 250 255 244 162 126 118 138 162 166 172 175 180 186
197 196 201 205 208 210 207 203 205 207 207 217 233 234 232 216 198 194 194 191 190 188 186 184 182 179 174 168 174 196 204 200 115 170 185 188 193 198 197 186 189 190 183 189 194 203 193 190 195 193 220 210 204 204 183 194 209 211 222 185 171 182 161 149 162 167 152 179 172 227 243 234 172 357 270 248 251 211 161 179 176 170 181 184 185 182 184 188
197 198 200 204 205 202 197 194 195 197 201 213 227 236 234 221 203 194 193 192 189 187 185 183 181 175 171 173 186 197 195 196 183 168 181 185 189 192 191 186 183 180 178 171 188 228 193 187 198 201 279 219 195 205 189 202 217 187 203 187 185 187 170 182 198 189 179 213 194 238 256 221 133 234 247 220 159 144 172 202 199 197 201 196 192 189 190 192
196 198 198 198 195 193 192 191 192 196 205 217 228 240 241 227 209 193 190 191 188 186 185 182 178 172 171 181 195 189 173 185 184 161 173 178 183 182 178 182 176 168 168 166 188 215 205 227 209 195 291 204 185 198 191 189 89 162 181 180 197 198 194 205 212 205 204 215 189 249 280 257 165 210 238 187 123 170 197 199 199 210 216 205 199 193 194 199
195 196 194 190 187 188 190 189 190 196 205 216 223 236 247 233 212 195 189 189 187 185 184 182 177 169 169 188 204 178 157 176 180 166 170 174 178 176 175 181 175 168 165 158 181 199 201 205 194 200 265 189 174 171 176 167 138 166 178 205 211 216 226 218 216 215 214 195 149 253 282 254 216 209 231 215 155 178 200 201 200 210 220 214 205 197 196 202
189 191 193 190 185 186 189 188 188 192 198 208 214 226 240 231 211 199 193 190 186 183 181 180 175 167 171 191 196 171 161 169 175 170 171 172 173 168 169 176 173 172 168 162 177 190 193 186 186 206 256 215 180 122 140 158 171 173 182 230 217 222 237 223 217 213 211 182 137 192 261 250 227 211 218 200 158 179 205 210 204 205 213 213 209 205 204 200
184 190 193 186 178 178 179 179 182 188 193 201 207 217 230 229 214 198 193 190 185 182 181 177 171 167 179 184 163 170 165 159 166 170 169 168 167 163 162 169 171 176 177 174 177 183 185 171 175 190 294 264 177 131 150 154 182 180 173 233 225 236 236 204 207 201 199 175 147 193 252 256 250 207 203 185 169 192 212 222 212 206 204 206 211 212 215 206
178 180 177 167 160 160 164 168 173 181 189 195 204 218 224 226 218 195 189 186 182 181 177 172 170 168 182 189 158 169 167 162 165 167 171 167 161 160 163 168 173 179 185 180 169 174 180 163 160 167 179 258 163 164 172 160 189 188 181 211 216 235 221 170 194 200 204 187 167 196 245 253 253 243 194 163 184 206 222 234 224 215 204 202 209 213 222 217
169 167 162 155 152 153 157 164 167 173 183 186 195 209 213 223 223 192 185 182 179 178 170 168 176 176 177 176 156 163 170 179 173 164 173 173 165 162 161 166 172 175 175 155 149 161 167 161 169 239 186 185 182 180 174 172 190 194 206 220 209 216 222 186 181 201 212 196 184 204 238 253 235 236 207 169 195 208 223 240 235 228 215 206 206 209 220 220
163 164 162 157 155 156 157 168 171 170 176 180 187 197 206 232 229 194 185 181 177 172 166 167 175 180 183 142 149 166 175 180 174 163 172 180 176 167 161 165 170 166 156 134 143 150 155 164 167 230 198 193 197 192 184 191 192 189 206 229 226 219 226 210 164 188 204 199 202 208 232 250 233 209 196 185 207 211 217 229 231 230 222 216 211 208 215 218
167 164 164 161 159 162 161 166 171 170 173 177 187 196 212 235 232 208 186 175 169 165 164 167 169 176 209 169 168 174 171 168 168 165 166 175 176 169 165 165 162 158 151 144 157 163 171 177 179 194 197 199 198 195 196 199 194 192 195 212 226 220 225 231 187 165 183 198 222 216 224 245 245 234 219 202 200 217 225 222 227 230 224 220 216 214 217 218
175 171 173 172 170 169 163 158 159 161 166 171 176 186 209 232 238 228 184 164 162 165 158 165 174 184 185 177 174 164 161 156 156 164 166 167 169 166 164 161 159 160 158 161 172 177 166 136 197 203 193 197 198 199 206 208 207 205 198 201 214 212 222 231 195 145 180 202 223 227 232 243 246 243 238 224 203 219 238 238 236 231 226 225 221 224 222 221
177 175 175 170 167 168 166 163 159 157 164 169 163 156 185 223 216 228 185 163 169 181 162 164 178 181 121 155 157 145 147 152 155 166 167 164 162 161 163 160 162 172 173 170 168 171 167 164 203 203 190 195 195 202 210 218 238 218 203 204 217 223 228 226 190 141 177 219 226 231 241 249 250 244 242 239 228 226 233 240 240 231 226 228 228 227 221 223
169 167 163 158 157 160 160 159 158 158 165 168 161 151 178 213 193 213 195 173 175 182 165 158 166 127 129 150 156 145 142 159 165 165 164 164 163 160 164 167 167 183 185 167 151 155 178 195 204 198 192 193 197 206 210 211 225 216 206 203 217 227 239 234 174 143 154 226 244 245 249 255 256 254 249 243 240 235 227 232 237 235 233 231 230 227 223 223
160 157 155 154 153 151 149 148 152 154 158 162 162 166 178 182 196 356 334 177 162 164 150 152 161 145 143 153 155 145 139 156 159 160 165 168 170 165 166 175 175 180 178 162 145 158 192 210 198 192 194 193 200 209 209 210 212 214 211 213 227 225 222 196 153 156 166 213 250 258 260 265 264 261 255 243 241 240 232 231 231 233 237 233 229 223 219 220
156 154 153 153 148 144 141 143 151 152 156 162 160 171 164 170 210 345 334 204 144 144 158 163 169 156 150 157 155 148 144 154 153 163 173 172 176 172 166 175 178 178 178 170 165 169 192 208 190 187 195 195 200 204 202 209 214 219 217 219 231 215 215 226 180 168 180 221 271 286 275 274 274 267 257 244 240 242 238 235 230 228 235 235 232 226 218 217
157 155 153 152 148 147 145 142 145 146 152 153 142 144 148 177 218 298 343 228 146 115 164 165 165 160 154 152 159 158 148 154 160 166 178 179 169 160 165 172 171 177 183 179 179 181 185 192 185 188 196 197 196 194 195 204 211 218 221 224 229 213 218 232 143 159 196 233 249 276 280 271 264 257 255 245 233 234 235 232 229 224 225 232 233 233 226 221
160 158 154 152 151 154 155 147 141 134 134 131 123 130 134 165 209 235 334 248 154 99 160 162 166 164 145 142 163 158 126 146 166 161 177 185 168 155 165 170 165 173 178 178 184 194 192 183 180 183 190 194 194 193 196 200 210 218 219 224 231 228 221 181 137 164 248 249 202 213 262 266 247 245 248 246 232 231 229 227 229 223 215 218 224 226 226 224
165 161 156 156 154 152 151 150 171 151 116 116 126 129 121 131 178 206 342 21 175 162 162 162 174 165 152 152 160 142 130 156 156 152 168 182 173 161 162 169 176 178 173 173 185 200 189 180 178 179 184 191 197 203 197 191 212 228 206 205 220 243 240 199 184 200 256 284 163 191 248 272 272 261 255 247 238 234 228 227 229 227 221 219 220 220 216 218
168 163 158 159 155 151 144 144 176 174 114 137 141 134 120 118 148 165 29 307 211 172 155 154 173 170 163 161 154 145 152 144 128 159 171 176 177 171 166 170 176 180 170 162 183 185 161 171 179 182 185 189 197 202 187 185 207 227 133 177 205 224 224 209 210 224 258 319 176 198 234 271 272 270 267 250 241 240 233 231 227 225 228 224 222 219 213 213
164 159 154 156 157 157 152 145 159 173 123 136 141 148 147 128 135 136 91 225 186 130 150 138 145 161 159 159 159 148 132 133 138 167 162 147 168 179 182 180 174 171 170 172 183 156 155 173 181 181 184 189 198 193 174 182 201 162 93 162 189 204 206 207 222 234 270 314 252 205 197 252 258 256 260 233 234 246 239 235 229 222 223 223 224 222 216 214
161 156 152 155 159 160 151 147 156 169 141 130 128 151 155 134 117 114 248 233 147 98 174 133 137 152 150 157 165 150 126 137 140 133 127 115 98 194 188 181 173 165 168 184 189 124 151 180 179 175 186 194 189 181 174 185 194 119 118 121 128 160 174 184 230 243 256 262 255 217 188 233 269 247 234 214 226 246 246 241 233 225 224 224 226 228 225 219
158 157 155 155 153 147 142 144 160 174 161 136 129 140 142 128 105 144 211 223 120 125 171 147 156 152 150 156 167 158 141 125 111 121 129 124 92 15 95 118 162 162 158 151 108 116 113 113 180 175 199 189 155 126 167 176 150 126 129 117 118 134 140 171 236 272 262 252 245 221 203 221 272 241 216 219 213 227 244 248 237 230 229 229 230 230 227 217
154 156 158 157 151 147 142 135 155 169 166 144 137 140 134 110 111 178 194 188 95 192 176 155 157 152 156 159 158 156 143 121 136 141 137 137 130 144 135 100 88 154 148 109 91 138 132 147 183 151 210 153 125 92 97 139 141 143 145 137 132 132 142 184 200 189 245 253 228 211 204 211 240 227 209 239 214 195 239 245 228 219 225 237 237 229 221 202
150 156 160 159 155 151 146 151 154 161 164 150 145 153 137 126 204 197 167 135 138 200 200 164 162 159 161 162 160 158 144 136 156 154 152 160 159 167 171 171 161 151 168 175 166 156 149 165 165 106 263 175 142 134 129 143 162 171 163 159 161 162 176 207 208 206 235 235 109 93 164 211 243 248 244 259 253 224 233 235 226 226 241 255 231 178 183 174
145 153 157 155 155 151 148 154 153 154 163 158 152 166 161 171 194 181 146 158 133 161 237 190 169 161 161 164 164 154 140 146 164 161 158 159 158 174 188 178 163 148 168 165 147 143 150 167 176 150 199 203 175 166 165 170 178 180 174 175 184 180 187 211 209 213 230 200 126 116 128 241 263 260 244 250 253 241 224 222 236 249 258 265 242 168 183 208
141 145 145 145 150 149 153 155 150 153 162 160 151 161 177 182 173 107 137 169 112 129 214 205 170 164 167 168 161 154 147 156 164 161 159 156 158 175 179 180 179 161 129 154 153 163 162 195 198 178 169 187 193 191 166 156 170 186 186 189 200 199 203 216 209 212 209 132 131 150 164 235 241 9 242 250 263 258 235 230 243 256 257 264 261 224 220 237
135 132 128 131 131 137 155 157 151 155 161 154 145 171 185 178 154 135 157 152 137 146 211 233 180 167 171 169 162 164 157 159 163 161 166 163 166 177 170 181 189 177 150 159 169 177 177 202 171 163 148 173 180 187 156 146 165 191 190 200 216 228 234 236 243 195 137 85 186 189 227 250 253 311 285 256 264 248 238 240 244 252 251 251 253 237 228 237
125 121 117 117 109 131 158 159 152 154 157 147 169 191 207 175 129 150 153 141 148 147 155 223 201 175 171 165 166 173 162 151 161 159 170 169 170 179 174 177 187 184 173 163 159 180 186 167 135 118 121 175 177 181 169 161 168 177 190 203 199 355 303 210 163 89 67 271 225 182 239 269 275 280 250 224 230 222 221 231 233 243 249 244 243 235 227 233
118 117 113 111 107 128 161 161 150 144 144 157 196 194 69 8 56 127 122 138 147 141 152 196 211 181 172 164 166 170 150 142 162 162 167 174 176 179 176 179 187 190 187 171 160 182 172 122 111 135 148 171 202 183 179 184 148 165 190 184 127 41 328 240 230 173 187 247 238 184 229 252 251 264 210 196 216 222 220 223 223 231 238 237 236 229 228 232
117 114 104 113 120 126 152 155 144 131 125 176 211 236 52 33 206 105 46 132 139 138 167 195 272 340 176 169 166 168 158 152 167 166 162 177 183 177 176 176 185 193 193 179 169 181 165 116 36 206 155 146 77 171 181 217 318 195 193 160 147 218 218 199 225 219 199 230 251 211 220 237 232 232 181 186 208 224 230 227 224 231 234 231 233 230 229 226
123 114 98 128 134 130 145 149 140 127 139 186 211 241 112 71 269 339 352 25 137 152 176 188 321 338 210 183 164 168 171 164 164 164 169 182 179 178 181 175 181 193 194 187 180 173 169 146 138 204 148 132 153 188 187 190 197 265 219 178 193 246 216 198 210 229 220 222 247 230 208 229 224 212 209 208 208 217 224 223 226 236 236 228 230 226 220 216
133 115 110 147 144 138 146 146 138 141 174 191 209 215 95 74 293 312 329 348 92 146 175 174 215 162 250 234 174 172 177 164 165 170 174 175 162 173 183 179 176 186 190 194 191 163 168 179 151 148 144 155 180 204 199 190 178 181 196 189 193 200 226 245 218 222 255 231 237 241 232 238 196 178 208 222 220 209 199 201 215 222 216 207 220 227 212 219
151 119 121 159 154 143 144 143 148 173 179 199 176 123 108 118 127 312 321 346 33 35 80 134 162 147 147 223 192 181 176 163 170 174 160 172 172 173 186 185 173 174 183 194 196 177 177 178 147 143 168 184 190 187 194 200 189 187 194 192 192 190 184 209 210 204 228 243 241 258 265 260 144 151 199 218 223 204 188 197 205 176 137 152 177 327 27 315
163 125 134 165 163 151 149 159 177 175 212 222 173 145 144 126 110 135 337 359 34 29 42 90 132 127 92 205 230 210 186 170 176 177 168 183 190 186 184 182 171 167 175 180 177 175 141 127 129 141 169 171 134 107 87 292 212 197 204 206 198 195 195 205 212 190 177 211 315 321 283 273 128 151 207 210 212 192 171 186 159 103 91 171 263 272 240 241
138 103 128 161 165 160 164 180 181 194 231 223 76 114 130 110 127 139 111 81 108 98 62 62 146 156 335 221 221 231 150 176 184 184 175 185 195 186 172 177 172 169 176 168 152 155 96 118 123 115 126 109 85 110 108 0 244 200 209 214 204 201 205 211 230 162 174 195 191 229 259 258 138 149 226 205 153 111 93 97 108 115 177 208 230 241 230 236
113 97 118 160 171 178 189 186 186 203 207 182 95 153 153 147 166 146 133 173 179 146 125 147 193 204 185 160 166 183 166 335 199 195 182 181 189 166 166 178 177 174 181 175 166 177 165 151 143 131 144 155 146 170 192 206 218 213 208 206 206 208 201 192 59 169 207 202 183 209 249 247 133 126 239 206 134 134 157 142 157 194 201 196 209 217 219 226
116 102 103 152 179 200 215 212 197 201 199 196 212 197 176 183 187 180 184 189 197 209 202 209 220 307 83 154 152 173 267 340 205 203 187 169 172 157 170 178 182 182 176 140 147 162 160 164 161 154 165 178 181 188 190 186 194 206 199 196 204 205 189 170 170 204 225 208 180 209 244 234 100 255 241 208 183 207 207 187 192 205 207 213 214 224 227 200
133 123 126 139 185 215 227 252 232 194 190 191 209 227 213 207 187 178 191 207 205 204 224 254 202 79 351 192 174 158 179 232 152 358 349 148 83 228 178 175 184 185 146 117 143 156 144 182 189 182 183 185 184 162 123 127 151 177 191 193 197 199 187 171 187 216 221 197 189 222 235 236 188 211 221 211 202 214 211 199 204 211 214 216 207 214 242 183
156 152 155 150 161 199 213 223 208 189 186 182 178 197 209 216 204 171 183 201 201 197 211 232 205 195 203 201 222 200 161 137 98 35 330 354 17 283 175 175 185 173 129 121 163 158 128 199 200 199 199 188 158 134 125 130 159 177 183 187 187 189 187 185 210 219 191 151 231 230 224 235 228 195 199 208 200 203 210 205 204 199 193 193 182 184 204 215
172 160 169 165 156 181 195 200 198 191 185 185 183 184 201 214 212 188 183 192 196 193 194 204 208 216 217 199 228 228 160 138 143 157 36 337 234 151 156 174 183 160 139 147 198 160 166 203 200 201 208 191 146 148 149 149 167 173 173 182 182 183 192 202 220 223 182 199 240 224 189 221 231 200 197 202 192 196 201 192 182 144 134 145 163 182 199 210
153 143 167 181 177 178 187 195 194 191 188 187 189 194 202 212 217 213 195 181 198 198 199 216 209 204 213 213 221 234 190 164 172 162 132 228 228 172 154 166 183 159 157 163 197 184 193 202 190 193 210 209 179 169 171 165 168 171 176 184 183 187 199 208 222 224 209 221 240 229 196 226 229 205 202 200 183 184 167 125 111 149 161 169 182 200 204 201
177 164 165 190 203 185 187 185 180 189 195 193 208 223 217 222 226 226 207 191 202 191 196 222 223 199 203 210 215 233 227 207 202 175 162 173 219 206 172 166 167 173 175 173 172 199 211 198 180 180 206 215 202 201 198 183 176 179 183 185 183 187 200 210 221 223 214 226 240 239 240 250 240 204 205 204 180 137 123 145 181 194 197 189 185 198 207 203
152 126 139 188 196 183 181 177 175 188 190 187 204 211 214 227 230 230 225 216 219 207 197 213 224 211 200 207 215 226 228 225 240 201 159 174 201 218 214 184 164 165 175 182 181 191 206 194 171 167 202 213 193 188 208 188 170 180 187 185 184 190 199 208 216 215 205 219 235 235 241 252 232 168 190 201 188 161 163 184 193 200 204 197 190 198 209 213
143 75 44 196 196 185 183 180 181 194 194 192 203 201 205 221 222 219 232 231 225 229 221 212 214 211 208 217 222 225 221 219 235 260 159 196 227 242 279 319 191 174 175 180 184 187 192 190 170 166 199 215 183 161 150 117 136 193 202 193 191 194 199 206 217 215 207 213 223 223 230 242 176 151 188 198 189 187 200 200 198 198 192 188 192 200 210 220